レモン-パンスターズ彗星

P/2019 A6 ( Lemmon-PanSTARRS )

English version
Home page
Updated on August 15, 2020

---------------------------------------------------------------------

・ プロフィール

発見日 2018年12月14日、2019年1月7日
発見光度 20.4等、20.7等
発見者 Mt. Lemmon Survey, Pan-STARRS 1 telescope (Haleakala)

・ 写真集

・ 軌道要素

Epoch 2018 Aug. 30.0 TT = JDT 2458360.5
T 2018 Aug. 29.31808 TT                                 MPCW
q   1.9385086            (2000.0)            P               Q
n   0.07913434     Peri.  156.30845     +0.16744393     -0.82537412
a   5.3731143      Node   280.27156     +0.79409973     +0.43702875
e   0.6392207      Incl.   33.22762     +0.58426719     -0.35744011
P  12.45
From 53 observations 2018 Nov. 10-2019 Mar. 1, mean residual 0".4.

・ 光度変化

        m1 = 15.5 + 5 logΔ + 10.0 log r

---------------------------------------------------------------------

軌道要素はM.P.E.C. 2019-J142に掲載されたものです。
光度グラフはComet for Windowsで作成したものです。

---------------------------------------------------------------------

Copyright(C) Seiichi Yoshida (comet@aerith.net). All rights reserved.